Location: Newark
(45.6833°N, 12.6333°E)
Time: 05:20:10
(UTC+00:00)

N. Korean satellite - Pass Details

Date: 17 November 2019
Orbit: 456 x 506 km, 97.2° (Epoch: 05 December)

Event Time Altitude Azimuth Distance (km) Brightness Sun altitude
Rises 05:24:00 0° 8° (N) 2,621 10.2 -8.4°
Reaches altitude 10° 05:26:08 10° 4° (N) 1,729 9.2 -8.1°
Maximum altitude 05:29:47 56° 286° (WNW) 606 6.7 -7.5°
Drops below altitude 10° 05:33:23 10° 208° (SSW) 1,698 9.2 -6.9°
Sets 05:35:27 0° 204° (SSW) 2,569 10.2 -6.5°
